User: anonymous   Login
Location: Melbourne
(37.8170°S, 144.9670°E)
Time: 05:21:36
(UTC+11:00)
Language:

ADEOS Rocket - Orbit

View from above orbital plane
View from above orbital plane
View from above satellite
View from above satellite

Ground track
Ground track

The orbit data is extracted from the following two-line orbital elements,

1 24279U 96046C   15028.81255112  .00000041  00000-0  98397-4 0  7915
2 24279 098.7163 073.0646 0299671 349.8118 135.1844 13.47011038907060
Epoch (UTC): 28 January 2015 19:30:04
Eccentricity: 0.0299671
inclination: 98.7163°
perigee height: 859 km
apogee height: 1307 km
right ascension of ascending node: 73.0646°
argument of perigee: 349.8118°
revolutions per day: 13.47011038
mean anomaly at epoch: 135.1844°
orbit number at epoch: 90706

The dashed part of the orbit path shows where the satellite is in the earth's shadow,  

DLR